STARLINK-2178, 47760

Orbit data source: Space-Track

STARLINK-2178, 47760 is a payload satellite owned by SpaceX/Seattle (US) in LEO that was launched on Thu, 04 Mar 2021 UTC via an FALCON 9 launch vehicle from the Air Force Eastern Test Range (AFETR). Payload-class satellites include a variety of spacecraft equipped with specific instruments for various scientific and technological missions. These include communications satellites like Starlink; space stations such as the ISS; scientific satellites like the Hubble; Earth observation satellites from companies like Planet Labs, Umbra, and HawkEye 360; GPS; miniature CubeSats for education and research; and military/defense satellites.

Loading next visibility...
Identifier
47760, 2021-017AQ
Orbit
LEO
Country
Flag of USUS
Related business
Manufacturer
SpaceX/Seattle
Mission
Operational Commercial Communications
Bus & Motor
STARLINK, Unknown motor
Mass
260 kg wet, ~248 kg dry
Launch date (UTC)
2021-03-04 (5 years ago)
Launch vehicle
FALCON 9
Launch site
Air Force Eastern Test Range (AFETR)
Object type
Payload
Rocket body
Debris
Shape & HBR
Box + 1 Pan, 10.1 m
Radar Cross Section
13.562 m², Large (>1 m²)

Expand to show TLE details & history
Last TLE update: 3 days ago

TLE from 3 days ago
0 STARLINK-2178
1 47760U 21017AQ  26170.53253217 -.00001315  00000-0 -30598-4 0  9990
2 47760  53.1603 102.9174 0001246  72.1645 287.9492 15.31703401293297
Epoch: 2026-06-19T12:46Z
TLE epoch observation values (Epoch: 2026-06-19T12:46:50.779Z)
Latitude
-0.00004°
Longitude
3.44564°
Altitude
471.367 km
Speed
7.632 km/s
True Right ascension
06h 51m 40s
True Declination
0° 00' 00"
Sunlit
Object was in daylight at epoch
Visualization orbit readout
Latitude
Unknown
Longitude
Unknown
Altitude
Unknown
Speed
Unknown
Apparent Right ascension
Unknown
Apparent Declination
Unknown
Sunlit
N/A
Visualization observer readout
Local Sidereal Time
21:35:58
Azimuth
Unknown
Elevation
Unknown
Doppler factor
Unknown
Orbital elements
Apogee altitude
471.84 km
Perigee altitude
470.133 km
Semi-major axis
6,849.123 km
Eccentricity
0.00012
Inclination
53.1603°
RAAN
102.9174°
Arg. of periapsis
72.1645°
True anomaly
287.93562°
Mean anomaly
287.9492°
Eccentric anomaly
287.94241°
Mean motion
3.82905 °/min
Orbital period
94.02 mins
BSTAR
-0.000030598
Loading maneuver chart data...
Computing Atmospheric mass density...

Documentation

Showing up to 5 results
|